Torna al catalogo

DELTA 1 DEB

LostUNKNOWN
NORAD 40760·DEBRIS·🇺🇸 United States

Lanciato Jul 29, 1976 da Vandenberg Space Force Base

Loading…

Prossimi Passaggi (prossime 24 ore)

TLE

ObsoletoSource: Space-Track

Epoca: Oct 10, 2015, 07:21 UTC

1 40760U 76077GD  15283.30628904  .00000010  00000-0  79104-3 0  9990
2 40760 103.3241 316.1683 0465124  55.5238 308.8812 11.55933568 45297

Traccia DELTA 1 DEB in tempo reale con AllMySat

Download on the App Store